Miscellaneous Local Product
Issued by NWS North Platte, NE

Home | Current Version | Previous Version | Graphics & Text | Print | Product List | Glossary On
Versions: 1 2 3 4 5 6 7 8 9 10 11 12 13 14 15 16 17 18 19 20 21 22 23 24 25 26 27 28 29 30 31 32 33 34 35 36 37 38 39 40 41 42 43 44 45 46 47 48 49 50
000
AXUS43 KLBF 280510
MISLBF


WESTERN AND NORTH CENTRAL NEBRASKA HOURLY WEATHER ROUNDUP
NATIONAL WEATHER SERVICE NORTH PLATTE NE
1200 AM CDT FRI AUG 28 2015

NOTE: "FAIR" INDICATES FEW OR NO CLOUDS BELOW 12,000 FEET WITH NO
SIGNIFICANT WEATHER AND/OR OBSTRUCTIONS TO VISIBILITY.

NOTE: STATIONS NOT REPORTING VARIABLES SUCH AS SKY/WEATHER OR
PRESSURE ARE PROVIDED BY THE NEBRASKA DEPARTMENT OF
ROADS...RAWS...AND APRS NETWORKS...AND ARE NOT UNDER
NATIONAL WEATHER SERVICE QUALITY CONTROL.

...OBSERVATIONS IN AND NEAR THE EASTERN PANHANDLE OF NEBRASKA...

CITY           SKY/WX    TMP DP  RH WIND       PRES   REMARKS
PINE RIDGE     PTCLDY    55  52  89 CALM      30.03F
CHADRON        CLEAR     57  54  89 SW6       30.02F
ALLIANCE       PTCLDY    54  52  93 W6        30.05F
SIDNEY         PTCLDY    61  55  81 NW9       30.10R
CRESCENT LAKE    N/A     61  56  84 N3          N/A
BIG SPRINGS      N/A     64  59  85 CALM        N/A
$$

...OBSERVATIONS IN NORTH CENTRAL NEBRASKA...

CITY           SKY/WX    TMP DP  RH WIND       PRES   REMARKS
THEDFORD       CLOUDY    69  66  89 N12       29.95S
AINSWORTH      CLOUDY    70  69  98 N8        29.92F FOG
O`NEILL        CLOUDY    70  68  94 E9        29.89F
ORD            CLOUDY    70  66  87 E3        29.85S
BROKEN BOW     PTCLDY    69  66  90 N6        29.87F
SPRINGVIEW       N/A     71  68  90 CALM        N/A
SARGENT          N/A     67  66  97 CALM        N/A
CHAMBERS         N/A     67  66  96 E3          N/A
EWING            N/A     68  65  89 E12G21      N/A
$$

...OBSERVATIONS IN SOUTHWEST NEBRASKA AND FAR NORTHEAST COLORADO...

CITY           SKY/WX    TMP DP  RH WIND       PRES   REMARKS
WRAY           FAIR      66  61  84 SW5       30.04S
HOLYOKE        FAIR      66  57  72 NW7       30.04S
IMPERIAL       CLEAR     68  60  75 NW13      29.99S
OGALLALA       PTCLDY    69  61  76 N14       30.00S
NORTH PLATTE   PTCLDY    70  65  84 NW9       29.93S
MCCOOK         PTCLDY    74  65  73 N9        29.91R
LEXINGTON      CLEAR     71  68  91 NW7       29.87S
PAXTON           N/A     69  62  79 NW6         N/A
BRADY            N/A     68  65  90 CALM        N/A
CALLAWAY         N/A     70  68  94 NW6         N/A
$$

...OBSERVATIONS IN CENTRAL LINCOLN COUNTY AREA...

CITY           SKY/WX    TMP DP  RH WIND       PRES   REMARKS
N.P. AIRPORT   PTCLDY    70  65  84 NW9       29.93S
N.P. DOWNTOWN    N/A     70  66  86 NW5         N/A
N.P. SOUTHEAST   N/A     71  66  85 MISG        N/A
$$

...SOME OBSERVATIONS FROM AROUND THE REGION...

CITY           SKY/WX    TMP DP  RH WIND       PRES   REMARKS
DENVER         MOCLDY    67  56  67 SW7       30.19R
LARAMIE        TSTM      53  48  83 N14G28    30.32R
CHEYENNE       MOCLDY    59  50  72 W7        30.21F
SCOTTSBLUFF    PTCLDY    65  57  75 CALM      30.08R
RAPID CITY     MOCLDY    61  59  93 SE5       30.02R
PIERRE         PTCLDY    67  67 100 CALM      29.91S
WINNER         CLOUDY    70  68  93 N5        29.91F FOG
SIOUX FALLS    LGT RAIN  66  64  93 SE17      29.96R
OMAHA          LGT RAIN  70  65  84 SE7       29.94R
GRAND ISLAND   CLOUDY    75  66  73 SW15      29.84S
KANSAS CITY    CLOUDY    70  64  81 S7        30.00R
WICHITA        CLOUDY    74  66  76 SW8       29.97R
HAYS           MOCLDY    81  61  50 S23G33    29.88R
LIBERAL        CLOUDY    75  59  57 W15       29.98F
GOODLAND       PTCLDY    71  60  68 NW14      30.01R
$$



USA.gov is the U.S. government's official web portal to all federal, state and local government web resources and services.